STARLINK-34578

Last updated on Tue Aug 19 2025 00:02:06 GMT+0000 (Coordinated Universal Time)

1 64856U 25152Q 25230.56363048 .00028512 00000+0 52360-3 0 9997 2 64856 97.6043 84.2092 0001252 82.3586 277.7806 15.49215101 4782
UTC large
Height (km)
Speed (km/s)
/
Latitude / Longitude
Inclination (degrees)
Orbital Period (minutes)
Azimuth
Elevation
Range (km)
Doppler Factor

Next 0 passes for location: London (51.5072 / 0.1276)

Sorry there are no passes over London.